Time,TemperatureF,DewpointF,PressureIn,WindDirection,WindDirectionDegrees,WindSpeedMPH,WindSpeedGustMPH,Humidity,HourlyPrecipIn,Conditions,Clouds,dailyrainin,SoftwareType,DateUTC
2013-06-20 00:09:00,57.2,56.6,29.66,ENE,67,0.0,-999.0,98,-99.99,,,0.00,Acu-Link.com,2013-06-20 07:09:00,
2013-06-20 00:24:00,56.7,56.1,29.66,ENE,67,0.0,-999.0,98,-99.99,,,0.00,Acu-Link.com,2013-06-20 07:24:00,
2013-06-20 00:39:00,56.5,55.9,29.66,East,90,0.0,-999.0,98,-99.99,,,0.00,Acu-Link.com,2013-06-20 07:39:00,
2013-06-20 00:54:00,55.9,55.3,29.66,East,90,0.0,-999.0,98,-99.99,,,0.00,Acu-Link.com,2013-06-20 07:54:00,
2013-06-20 01:10:00,55.2,36.4,29.66,East,90,0.0,-999.0,49,-99.99,,,0.00,Acu-Link.com,2013-06-20 08:10:00,
2013-06-20 01:25:00,55.2,54.6,29.67,SE,135,0.0,-999.0,98,-99.99,,,0.00,Acu-Link.com,2013-06-20 08:25:00,
2013-06-20 01:40:00,55.0,54.4,29.67,ENE,67,0.0,-999.0,98,-99.99,,,0.00,Acu-Link.com,2013-06-20 08:40:00,
2013-06-20 01:55:00,55.6,55.0,29.67,ESE,112,1.7,-999.0,98,-99.99,,,0.00,Acu-Link.com,2013-06-20 08:55:00,
2013-06-20 02:10:00,55.8,55.2,29.66,ESE,112,0.0,-999.0,98,-99.99,,,0.00,Acu-Link.com,2013-06-20 09:10:00,
2013-06-20 02:26:00,54.7,54.1,29.66,West,270,0.0,-999.0,98,-99.99,,,0.00,Acu-Link.com,2013-06-20 09:26:00,
2013-06-20 02:41:00,54.1,53.5,29.67,East,90,0.0,-999.0,98,-99.99,,,0.00,Acu-Link.com,2013-06-20 09:41:00,
2013-06-20 02:56:00,54.1,52.7,29.67,East,90,0.0,-999.0,95,-99.99,,,0.00,Acu-Link.com,2013-06-20 09:56:00,
2013-06-20 03:11:00,53.8,53.2,29.67,East,90,0.0,-999.0,98,-99.99,,,0.00,Acu-Link.com,2013-06-20 10:11:00,
2013-06-20 03:26:00,52.9,50.6,29.67,East,90,0.0,-999.0,92,-99.99,,,0.00,Acu-Link.com,2013-06-20 10:26:00,
2013-06-20 03:41:00,52.7,50.4,29.67,SW,225,0.0,-999.0,92,-99.99,,,0.00,Acu-Link.com,2013-06-20 10:41:00,
2013-06-20 03:56:00,51.6,51.1,29.67,SW,225,0.0,-999.0,98,-99.99,,,0.00,Acu-Link.com,2013-06-20 10:56:00,
2013-06-20 04:11:00,51.8,51.3,29.68,SW,225,0.0,-999.0,98,-99.99,,,0.00,Acu-Link.com,2013-06-20 11:11:00,
2013-06-20 04:26:00,51.1,50.6,29.67,South,180,0.0,-999.0,98,-99.99,,,0.00,Acu-Link.com,2013-06-20 11:26:00,
2013-06-20 04:42:00,51.1,50.6,29.67,WSW,247,0.0,-999.0,98,-99.99,,,0.00,Acu-Link.com,2013-06-20 11:42:00,
2013-06-20 04:57:00,50.7,50.2,29.66,SSW,202,0.0,-999.0,98,-99.99,,,0.00,Acu-Link.com,2013-06-20 11:57:00,
2013-06-20 05:12:00,50.7,50.2,29.67,NNW,337,0.0,-999.0,98,-99.99,,,0.00,Acu-Link.com,2013-06-20 12:12:00,
2013-06-20 05:27:00,50.7,50.2,29.67,ESE,112,0.0,-999.0,98,-99.99,,,0.00,Acu-Link.com,2013-06-20 12:27:00,
2013-06-20 05:42:00,50.2,49.7,29.67,South,180,0.0,-999.0,98,-99.99,,,0.00,Acu-Link.com,2013-06-20 12:42:00,
2013-06-20 05:57:00,50.0,49.5,29.67,ESE,112,0.0,-999.0,98,-99.99,,,0.00,Acu-Link.com,2013-06-20 12:57:00,
2013-06-20 06:12:00,50.5,50.0,29.68,West,270,0.0,-999.0,98,-99.99,,,0.00,Acu-Link.com,2013-06-20 13:12:00,
2013-06-20 06:27:00,53.1,52.5,29.68,SSE,157,0.0,-999.0,98,-99.99,,,0.00,Acu-Link.com,2013-06-20 13:27:00,
2013-06-20 06:42:00,55.9,55.3,29.69,SW,225,0.0,-999.0,98,-99.99,,,0.00,Acu-Link.com,2013-06-20 13:42:00,
2013-06-20 06:58:00,59.9,59.3,29.69,West,270,0.0,-999.0,98,-99.99,,,0.00,Acu-Link.com,2013-06-20 13:58:00,
2013-06-20 07:13:00,62.8,62.2,29.69,WSW,247,1.1,-999.0,98,-99.99,,,0.00,Acu-Link.com,2013-06-20 14:13:00,
2013-06-20 07:28:00,65.8,65.2,29.70,NNE,22,0.0,-999.0,98,-99.99,,,0.00,Acu-Link.com,2013-06-20 14:28:00,
2013-06-20 07:43:00,69.4,16.4,29.69,ESE,112,0.0,-999.0,13,-99.99,,,0.00,Acu-Link.com,2013-06-20 14:43:00,
2013-06-20 07:58:00,74.1,-32.4,29.70,West,270,0.0,-999.0,1,-99.99,,,0.00,Acu-Link.com,2013-06-20 14:58:00,
2013-06-20 08:13:00,76.5,-30.9,29.70,SSW,202,0.0,-999.0,1,-99.99,,,0.00,Acu-Link.com,2013-06-20 15:13:00,
2013-06-20 08:28:00,78.3,-29.9,29.70,WNW,292,1.7,-999.0,1,-99.99,,,0.00,Acu-Link.com,2013-06-20 15:28:00,
2013-06-20 08:43:00,81.0,-28.2,29.70,SE,135,0.0,-999.0,1,-99.99,,,0.00,Acu-Link.com,2013-06-20 15:43:00,
2013-06-20 08:58:00,82.8,71.6,29.71,South,180,1.1,-999.0,69,-99.99,,,0.00,Acu-Link.com,2013-06-20 15:58:00,
2013-06-20 09:13:00,84.4,81.8,29.71,NNW,337,2.2,-999.0,92,-99.99,,,0.00,Acu-Link.com,2013-06-20 16:13:00,
2013-06-20 09:29:00,85.3,63.4,29.70,ESE,112,3.7,-999.0,48,-99.99,,,0.00,Acu-Link.com,2013-06-20 16:29:00,
2013-06-20 09:44:00,85.8,64.4,29.70,NE,45,1.7,-999.0,49,-99.99,,,0.00,Acu-Link.com,2013-06-20 16:44:00,
2013-06-20 09:59:00,86.2,85.6,29.71,SW,225,1.7,-999.0,98,-99.99,,,0.00,Acu-Link.com,2013-06-20 16:59:00,
2013-06-20 10:14:00,87.3,85.7,29.70,West,270,3.2,-999.0,95,-99.99,,,0.00,Acu-Link.com,2013-06-20 17:14:00,
2013-06-20 10:29:00,87.8,87.2,29.70,SW,225,5.8,-999.0,98,-99.99,,,0.00,Acu-Link.com,2013-06-20 17:29:00,
2013-06-20 10:44:00,87.6,87.0,29.70,SW,225,3.2,-999.0,98,-99.99,,,0.00,Acu-Link.com,2013-06-20 17:44:00,
2013-06-20 10:59:00,88.5,87.9,29.70,North,0,1.1,-999.0,98,-99.99,,,0.00,Acu-Link.com,2013-06-20 17:59:00,
2013-06-20 11:14:00,87.4,86.8,29.70,WSW,247,3.2,-999.0,98,-99.99,,,0.00,Acu-Link.com,2013-06-20 18:14:00,
2013-06-20 11:29:00,86.9,86.3,29.69,West,270,5.8,-999.0,98,-99.99,,,0.00,Acu-Link.com,2013-06-20 18:29:00,
2013-06-20 11:45:00,85.3,84.7,29.69,WSW,247,4.2,-999.0,98,-99.99,,,0.00,Acu-Link.com,2013-06-20 18:45:00,
2013-06-20 12:00:00,86.5,77.2,29.70,SSW,202,5.8,-999.0,74,-99.99,,,0.00,Acu-Link.com,2013-06-20 19:00:00,
2013-06-20 12:15:00,85.8,85.2,29.69,NW,315,4.2,-999.0,98,-99.99,,,0.00,Acu-Link.com,2013-06-20 19:15:00,
2013-06-20 12:30:00,87.1,86.5,29.69,WSW,247,3.7,-999.0,98,-99.99,,,0.00,Acu-Link.com,2013-06-20 19:30:00,
2013-06-20 12:45:00,88.5,87.9,29.68,WSW,247,6.3,-999.0,98,-99.99,,,0.00,Acu-Link.com,2013-06-20 19:45:00,
2013-06-20 13:00:00,88.9,88.3,29.69,West,270,4.7,-999.0,98,-99.99,,,0.00,Acu-Link.com,2013-06-20 20:00:00,
2013-06-20 13:15:00,86.7,86.1,29.68,NNW,337,3.2,-999.0,98,-99.99,,,0.00,Acu-Link.com,2013-06-20 20:15:00,
2013-06-20 13:30:00,87.3,86.7,29.68,SW,225,5.8,-999.0,98,-99.99,,,0.00,Acu-Link.com,2013-06-20 20:30:00,
2013-06-20 13:45:00,87.4,86.8,29.68,SSE,157,4.2,-999.0,98,-99.99,,,0.00,Acu-Link.com,2013-06-20 20:45:00,
2013-06-20 14:01:00,88.0,87.4,29.68,WSW,247,7.8,-999.0,98,-99.99,,,0.00,Acu-Link.com,2013-06-20 21:01:00,
2013-06-20 14:16:00,89.8,89.2,29.68,SSW,202,5.8,-999.0,98,-99.99,,,0.00,Acu-Link.com,2013-06-20 21:16:00,
2013-06-20 14:31:00,90.3,87.3,29.68,SE,135,2.7,-999.0,91,-99.99,,,0.00,Acu-Link.com,2013-06-20 21:31:00,
2013-06-20 14:46:00,88.7,88.1,29.67,West,270,6.3,-999.0,98,-99.99,,,0.00,Acu-Link.com,2013-06-20 21:46:00,
2013-06-20 15:01:00,88.7,88.1,29.67,NE,45,4.7,-999.0,98,-99.99,,,0.00,Acu-Link.com,2013-06-20 22:01:00,
2013-06-20 15:16:00,88.0,87.4,29.67,West,270,2.7,-999.0,98,-99.99,,,0.00,Acu-Link.com,2013-06-20 22:16:00,
2013-06-20 15:31:00,88.0,87.4,29.67,WSW,247,4.7,-999.0,98,-99.99,,,0.00,Acu-Link.com,2013-06-20 22:31:00,
2013-06-20 15:46:00,89.1,79.7,29.67,South,180,2.7,-999.0,74,-99.99,,,0.00,Acu-Link.com,2013-06-20 22:46:00,
2013-06-20 16:01:00,87.8,87.2,29.67,South,180,2.2,-999.0,98,-99.99,,,0.00,Acu-Link.com,2013-06-20 23:01:00,
2013-06-20 16:17:00,89.4,88.8,29.66,SSW,202,3.7,-999.0,98,-99.99,,,0.00,Acu-Link.com,2013-06-20 23:17:00,
2013-06-20 16:32:00,87.1,86.5,29.67,North,0,4.2,-999.0,98,-99.99,,,0.00,Acu-Link.com,2013-06-20 23:32:00,
2013-06-20 16:47:00,86.7,86.1,29.66,SSW,202,6.3,-999.0,98,-99.99,,,0.00,Acu-Link.com,2013-06-20 23:47:00,
2013-06-20 17:02:00,86.7,-11.5,29.65,WNW,292,2.2,-999.0,2,-99.99,,,0.00,Acu-Link.com,2013-06-21 00:02:00,
2013-06-20 17:17:00,87.1,15.6,29.65,SW,225,2.7,-999.0,7,-99.99,,,0.00,Acu-Link.com,2013-06-21 00:17:00,
2013-06-20 17:32:00,85.1,49.2,29.65,WNW,292,4.2,-999.0,29,-99.99,,,0.00,Acu-Link.com,2013-06-21 00:32:00,
2013-06-20 17:47:00,83.3,32.4,29.64,SSW,202,4.2,-999.0,16,-99.99,,,0.00,Acu-Link.com,2013-06-21 00:47:00,
2013-06-20 18:02:00,82.6,-27.3,29.64,WSW,247,2.2,-999.0,1,-99.99,,,0.00,Acu-Link.com,2013-06-21 01:02:00,
2013-06-20 18:17:00,83.7,-26.6,29.65,ESE,112,1.7,-999.0,1,-99.99,,,0.00,Acu-Link.com,2013-06-21 01:17:00,
2013-06-20 18:33:00,83.1,-27.0,29.64,North,0,3.7,-999.0,1,-99.99,,,0.00,Acu-Link.com,2013-06-21 01:33:00,
2013-06-20 18:48:00,82.2,81.6,29.64,West,270,1.1,-999.0,98,-99.99,,,0.00,Acu-Link.com,2013-06-21 01:48:00,
2013-06-20 19:03:00,81.3,80.7,29.64,WSW,247,4.2,-999.0,98,-99.99,,,0.00,Acu-Link.com,2013-06-21 02:03:00,
2013-06-20 19:18:00,78.1,73.6,29.64,East,90,1.1,-999.0,86,-99.99,,,0.00,Acu-Link.com,2013-06-21 02:18:00,
2013-06-20 19:33:00,73.9,43.8,29.65,West,270,2.2,-999.0,34,-99.99,,,0.00,Acu-Link.com,2013-06-21 02:33:00,
2013-06-20 19:48:00,72.0,-33.6,29.65,NW,315,0.0,-999.0,1,-99.99,,,0.00,Acu-Link.com,2013-06-21 02:48:00,
2013-06-20 20:03:00,70.7,-34.4,29.64,SW,225,0.0,-999.0,1,-99.99,,,0.00,Acu-Link.com,2013-06-21 03:03:00,
2013-06-20 20:18:00,68.5,-35.7,29.65,SSW,202,1.1,-999.0,1,-99.99,,,0.00,Acu-Link.com,2013-06-21 03:18:00,
2013-06-20 20:33:00,67.1,-36.6,29.66,South,180,2.7,-999.0,1,-99.99,,,0.00,Acu-Link.com,2013-06-21 03:33:00,
2013-06-20 20:49:00,66.7,21.9,29.66,SE,135,0.0,-999.0,18,-99.99,,,0.00,Acu-Link.com,2013-06-21 03:49:00,
2013-06-20 21:04:00,66.4,29.5,29.67,SSE,157,0.0,-999.0,25,-99.99,,,0.00,Acu-Link.com,2013-06-21 04:04:00,
2013-06-20 21:19:00,65.1,63.9,29.67,South,180,1.1,-999.0,96,-99.99,,,0.00,Acu-Link.com,2013-06-21 04:19:00,
2013-06-20 21:34:00,64.6,41.0,29.68,NW,315,0.0,-999.0,42,-99.99,,,0.00,Acu-Link.com,2013-06-21 04:34:00,
2013-06-20 21:49:00,63.7,63.1,29.67,West,270,0.0,-999.0,98,-99.99,,,0.00,Acu-Link.com,2013-06-21 04:49:00,
2013-06-20 22:04:00,63.1,62.5,29.68,WNW,292,0.0,-999.0,98,-99.99,,,0.00,Acu-Link.com,2013-06-21 05:04:00,
2013-06-20 22:19:00,62.1,61.5,29.68,NE,45,0.0,-999.0,98,-99.99,,,0.00,Acu-Link.com,2013-06-21 05:19:00,
2013-06-20 22:35:00,61.5,60.9,29.68,ENE,67,0.0,-999.0,98,-99.99,,,0.00,Acu-Link.com,2013-06-21 05:35:00,
2013-06-20 22:50:00,60.6,60.0,29.68,NE,45,0.0,-999.0,98,-99.99,,,0.00,Acu-Link.com,2013-06-21 05:50:00,
2013-06-20 23:05:00,60.8,60.2,29.68,ESE,112,0.0,-999.0,98,-99.99,,,0.00,Acu-Link.com,2013-06-21 06:05:00,
2013-06-20 23:20:00,60.8,60.2,29.68,ESE,112,0.0,-999.0,98,-99.99,,,0.00,Acu-Link.com,2013-06-21 06:20:00,
2013-06-20 23:35:00,59.9,59.3,29.69,West,270,0.0,-999.0,98,-99.99,,,0.00,Acu-Link.com,2013-06-21 06:35:00,
2013-06-20 23:50:00,59.2,58.6,29.69,West,270,0.0,-999.0,98,-99.99,,,0.00,Acu-Link.com,2013-06-21 06:50:00,